Tracking 19280 objects as of 15-Nov-2018
HD Live streaming from Space Station
objects crossing your sky now

OICETS

Track OICETS now!
10-day predictions
OICETS is classified as:


NORAD ID: 28809
Int'l Code: 2005-031A
Perigee: 559.8 km
Apogee: 588.2 km
Inclination: 97.9 °
Period: 96.0 minutes
Semi major axis: 6945 km
RCS: 1.711 m2 (large)
Launch date: August 23, 2005
Source: Japan (JPN)
Launch site: TYURATAM MISSILE AND SPACE COMPLEX (TTMTR)

Study inter-satellite communications.
aabbcc
Your satellite tracking list
Your tracking list is empty




NASA's NSSDC Master Catalog

Two Line Element Set (TLE):
1 28809U 05031A   18318.78930425 +.00000417 +00000-0 +38523-4 0  9992
2 28809 097.9433 047.0101 0020419 042.8891 317.3920 15.00010343721412
Source of the keplerian elements: AFSPC